| time (UTC) | temp F | wind direction | speed knots | gust knots | rain 1hr in | rain 24hr in | rain mn in | humidity % | barometer mb |
| 20260506185216 | 61 | 158 | 3.5 | 8.7 | 0.00 | 0.00 | 0.00 | 77 | 1012.5 |
| 20260506184503 | 61 | 163 | 4.3 | 8.7 | 0.00 | 0.00 | 0.00 | 76 | 1012.2 |
| 20260506184216 | 61 | 155 | 4.3 | 8.7 | 0.00 | 0.00 | 0.00 | 78 | 1012.3 |
| 20260506183503 | 62 | 153 | 4.3 | 7.8 | 0.00 | 0.00 | 0.00 | 77 | 1012.3 |
| 20260506183003 | 62 | 152 | 5.2 | 13.0 | 0.00 | 0.00 | 0.00 | 77 | 1012.3 |
| 20260506182503 | 62 | 144 | 6.1 | 13.0 | 0.00 | 0.00 | 0.00 | 76 | 1012.0 |
| 20260506182003 | 62 | 158 | 5.2 | 10.4 | 0.00 | 0.00 | 0.00 | 76 | 1011.9 |
| 20260506181503 | 62 | 161 | 5.2 | 11.3 | 0.00 | 0.00 | 0.00 | 76 | 1011.9 |
| 20260506181003 | 62 | 153 | 6.1 | 11.3 | 0.00 | 0.00 | 0.00 | 74 | 1011.7 |
| 20260506180503 | 62 | 157 | 5.2 | 10.4 | 0.00 | 0.00 | 0.00 | 73 | 1011.8 |
| 20260506180004 | 62 | 153 | 5.2 | 13.9 | 0.00 | 0.00 | 0.00 | 73 | 1011.9 |
| 20260506175717 | 62 | 150 | 5.2 | 13.9 | 0.00 | 0.00 | 0.00 | 72 | 1011.9 |
| 20260506175003 | 62 | 153 | 7.0 | 13.0 | 0.00 | 0.00 | 0.00 | 75 | 1011.9 |
| 20260506174503 | 62 | 157 | 6.1 | 13.0 | 0.00 | 0.00 | 0.00 | 73 | 1011.6 |
| 20260506174003 | 62 | 146 | 6.1 | 11.3 | 0.00 | 0.00 | 0.00 | 74 | 1011.9 |
| 20260506173503 | 62 | 140 | 5.2 | 11.3 | 0.00 | 0.00 | 0.00 | 73 | 1011.7 |
| 20260506173003 | 63 | 153 | 5.2 | 13.0 | 0.00 | 0.00 | 0.00 | 73 | 1011.6 |
| 20260506172503 | 62 | 146 | 7.8 | 13.0 | 0.00 | 0.00 | 0.00 | 73 | 1011.7 |
| 20260506172003 | 62 | 149 | 7.8 | 12.2 | 0.00 | 0.00 | 0.00 | 73 | 1011.5 |
| 20260506171503 | 63 | 167 | 6.1 | 14.8 | 0.00 | 0.00 | 0.00 | 71 | 1011.5 |
| 20260506171003 | 64 | 204 | 5.2 | 14.8 | 0.00 | 0.00 | 0.00 | 70 | 1011.6 |
| 20260506170503 | 64 | 212 | 4.3 | 9.6 | 0.00 | 0.00 | 0.00 | 68 | 1011.5 |
| 20260506170003 | 64 | 207 | 4.3 | 9.6 | 0.00 | 0.00 | 0.00 | 65 | 1011.3 |
| 20260506165503 | 64 | 168 | 4.3 | 12.2 | 0.00 | 0.00 | 0.00 | 61 | 1011.4 |
| 20260506165003 | 64 | 136 | 5.2 | 12.2 | 0.00 | 0.00 | 0.00 | 60 | 1011.5 |
| 20260506164717 | 64 | 151 | 6.1 | 12.2 | 0.00 | 0.00 | 0.00 | 62 | 1011.5 |
| 20260506164010 | 64 | 197 | 6.1 | 11.3 | 0.00 | 0.00 | 0.00 | 59 | 1011.3 |
| 20260506162507 | 63 | 135 | 8.7 | 15.6 | 0.00 | 0.00 | 0.00 | 60 | 1011.3 |
| 20260506162230 | 63 | 143 | 7.8 | 14.8 | 0.00 | 0.00 | 0.00 | 58 | 1011.4 |
| 20260506161011 | 63 | 143 | 5.2 | 13.9 | 0.00 | 0.00 | 0.00 | 58 | 1011.4 |
| 20260506160018 | 63 | 117 | 6.1 | 12.2 | 0.00 | 0.00 | 0.00 | 60 | 1011.2 |
| 20260506155507 | 63 | 117 | 6.1 | 12.2 | 0.00 | 0.00 | 0.00 | 59 | 1011.3 |
| 20260506155014 | 63 | 137 | 7.8 | 13.9 | 0.00 | 0.00 | 0.00 | 58 | 1011.2 |
| 20260506154003 | 63 | 133 | 8.7 | 17.4 | 0.00 | 0.00 | 0.00 | 56 | 1011.4 |
| 20260506153503 | 63 | 143 | 7.8 | 16.5 | 0.00 | 0.00 | 0.00 | 55 | 1011.2 |
| 20260506153003 | 64 | 143 | 7.8 | 18.2 | 0.00 | 0.00 | 0.00 | 55 | 1011.0 |
| 20260506152718 | 63 | 141 | 7.8 | 18.2 | 0.00 | 0.00 | 0.00 | 54 | 1011.3 |
| 20260506152003 | 64 | 155 | 6.1 | 13.9 | 0.00 | 0.00 | 0.00 | 54 | 1011.5 |
| 20260506151503 | 64 | 161 | 6.1 | 13.9 | 0.00 | 0.00 | 0.00 | 56 | 1011.4 |
| 20260506151003 | 64 | 180 | 6.1 | 13.9 | 0.00 | 0.00 | 0.00 | 56 | 1011.4 |
| 20260506150503 | 64 | 198 | 5.2 | 12.2 | 0.00 | 0.00 | 0.00 | 54 | 1011.3 |
| 20260506150003 | 64 | 155 | 6.1 | 16.5 | 0.00 | 0.00 | 0.00 | 55 | 1011.5 |
| 20260506145503 | 63 | 154 | 7.0 | 16.5 | 0.00 | 0.00 | 0.00 | 55 | 1011.4 |
| 20260506145003 | 64 | 184 | 6.1 | 15.6 | 0.00 | 0.00 | 0.00 | 54 | 1011.3 |
| 20260506144503 | 64 | 153 | 7.8 | 15.6 | 0.00 | 0.00 | 0.00 | 57 | 1011.6 |
| 20260506144003 | 63 | 141 | 9.6 | 15.6 | 0.00 | 0.00 | 0.00 | 58 | 1011.5 |
| 20260506143503 | 64 | 156 | 7.8 | 14.8 | 0.00 | 0.00 | 0.00 | 57 | 1011.6 |
| 20260506143003 | 63 | 176 | 7.8 | 14.8 | 0.00 | 0.00 | 0.00 | 56 | 1011.2 |
| 20260506142718 | 64 | 179 | 7.0 | 14.8 | 0.00 | 0.00 | 0.00 | 56 | 1011.7 |
| 20260506142217 | 64 | 177 | 7.0 | 14.8 | 0.00 | 0.00 | 0.00 | 56 | 1011.6 |
| 20260506141503 | 64 | 152 | 8.7 | 15.6 | 0.00 | 0.00 | 0.00 | 56 | 1011.6 |
| 20260506141003 | 64 | 158 | 7.8 | 15.6 | 0.00 | 0.00 | 0.00 | 56 | 1011.5 |
| 20260506140503 | 63 | 168 | 6.1 | 13.9 | 0.00 | 0.00 | 0.00 | 56 | 1011.7 |
| 20260506140003 | 64 | 147 | 7.0 | 17.4 | 0.00 | 0.00 | 0.00 | 55 | 1011.8 |
| 20260506135503 | 64 | 131 | 7.8 | 19.1 | 0.00 | 0.00 | 0.00 | 56 | 1011.8 |
| 20260506135003 | 64 | 139 | 7.0 | 19.1 | 0.00 | 0.00 | 0.00 | 57 | 1011.6 |
| 20260506134503 | 64 | 132 | 7.0 | 13.9 | 0.00 | 0.00 | 0.00 | 57 | 1011.8 |
| 20260506134003 | 64 | 127 | 7.8 | 18.2 | 0.00 | 0.00 | 0.00 | 58 | 1011.8 |
| 20260506133503 | 64 | 139 | 7.0 | 18.2 | 0.00 | 0.00 | 0.00 | 57 | 1011.9 |
| 20260506133216 | 64 | 133 | 7.0 | 13.0 | 0.00 | 0.00 | 0.00 | 58 | 1011.8 |
| 20260506132503 | 64 | 132 | 7.8 | 15.6 | 0.00 | 0.00 | 0.00 | 57 | 1012.0 |
| 20260506132003 | 64 | 150 | 7.0 | 16.5 | 0.00 | 0.00 | 0.00 | 57 | 1012.0 |
| 20260506131503 | 65 | 180 | 5.2 | 16.5 | 0.00 | 0.00 | 0.00 | 55 | 1012.1 |
| 20260506131003 | 64 | 170 | 5.2 | 17.4 | 0.00 | 0.00 | 0.00 | 55 | 1012.2 |
| 20260506130503 | 64 | 139 | 7.0 | 19.1 | 0.00 | 0.00 | 0.00 | 55 | 1012.2 |
| 20260506130003 | 63 | 140 | 7.8 | 19.1 | 0.00 | 0.00 | 0.00 | 55 | 1012.0 |
| 20260506125503 | 65 | 156 | 6.1 | 13.9 | 0.00 | 0.00 | 0.00 | 53 | 1012.2 |
| 20260506125003 | 65 | 173 | 6.1 | 12.2 | 0.00 | 0.00 | 0.00 | 54 | 1012.2 |
| 20260506124503 | 63 | 169 | 7.0 | 13.0 | 0.00 | 0.00 | 0.00 | 56 | 1012.2 |
| 20260506124003 | 64 | 148 | 7.0 | 15.6 | 0.00 | 0.00 | 0.00 | 55 | 1012.3 |
| 20260506123503 | 63 | 147 | 7.8 | 15.6 | 0.00 | 0.00 | 0.00 | 57 | 1012.1 |
| 20260506123003 | 64 | 138 | 7.8 | 14.8 | 0.00 | 0.00 | 0.00 | 55 | 1012.2 |
| 20260506122503 | 64 | 156 | 7.8 | 14.8 | 0.00 | 0.00 | 0.00 | 55 | 1012.1 |
| 20260506122003 | 64 | 175 | 7.8 | 13.0 | 0.00 | 0.00 | 0.00 | 54 | 1012.2 |
| 20260506121503 | 65 | 168 | 7.0 | 13.0 | 0.00 | 0.00 | 0.00 | 53 | 1012.2 |
| 20260506121003 | 65 | 175 | 6.1 | 12.2 | 0.00 | 0.00 | 0.00 | 52 | 1012.1 |
| 20260506120503 | 64 | 177 | 6.1 | 14.8 | 0.00 | 0.00 | 0.00 | 52 | 1012.3 |
| 20260506120003 | 65 | 158 | 6.1 | 14.8 | 0.00 | 0.00 | 0.00 | 52 | 1012.3 |
| 20260506115503 | 65 | 143 | 5.2 | 13.9 | 0.00 | 0.00 | 0.00 | 53 | 1012.1 |
| 20260506115003 | 64 | 154 | 5.2 | 13.0 | 0.00 | 0.00 | 0.00 | 52 | 1012.1 |
| 20260506114503 | 64 | 164 | 7.0 | 13.0 | 0.00 | 0.00 | 0.00 | 53 | 1012.2 |
| 20260506114003 | 64 | 153 | 6.1 | 12.2 | 0.00 | 0.00 | 0.00 | 53 | 1012.2 |
| 20260506113503 | 64 | 152 | 5.2 | 12.2 | 0.00 | 0.00 | 0.00 | 52 | 1012.2 |
| 20260506113003 | 65 | 172 | 4.3 | 11.3 | 0.00 | 0.00 | 0.00 | 52 | 1012.0 |
| 20260506112503 | 64 | 171 | 5.2 | 13.9 | 0.00 | 0.00 | 0.00 | 53 | 1012.1 |
| 20260506112218 | 64 | 160 | 6.1 | 13.9 | 0.00 | 0.00 | 0.00 | 53 | 1012.6 |
| 20260506111503 | 65 | 167 | 7.8 | 13.9 | 0.00 | 0.00 | 0.00 | 54 | 1012.3 |
| 20260506111218 | 63 | 163 | 7.0 | 13.0 | 0.00 | 0.00 | 0.00 | 54 | 1012.6 |
| 20260506110503 | 64 | 152 | 7.0 | 13.9 | 0.00 | 0.00 | 0.00 | 53 | 1012.6 |
| 20260506110003 | 64 | 156 | 7.8 | 13.9 | 0.00 | 0.00 | 0.00 | 53 | 1012.5 |
| 20260506105503 | 63 | 159 | 7.0 | 13.0 | 0.00 | 0.00 | 0.00 | 54 | 1012.6 |
| 20260506105003 | 64 | 152 | 6.1 | 13.9 | 0.00 | 0.00 | 0.00 | 54 | 1012.2 |
| 20260506104716 | 64 | 147 | 7.0 | 15.6 | 0.00 | 0.00 | 0.00 | 54 | 1012.5 |
| 20260506104003 | 64 | 144 | 6.1 | 15.6 | 0.00 | 0.00 | 0.00 | 55 | 1012.6 |
| 20260506103503 | 63 | 141 | 7.0 | 14.8 | 0.00 | 0.00 | 0.00 | 56 | 1012.6 |
| 20260506103003 | 64 | 154 | 6.1 | 13.0 | 0.00 | 0.00 | 0.00 | 56 | 1012.6 |
| 20260506102718 | 64 | 162 | 6.1 | 13.0 | 0.00 | 0.00 | 0.00 | 56 | 1012.7 |
| 20260506102217 | 64 | 162 | 6.1 | 12.2 | 0.00 | 0.00 | 0.00 | 58 | 1012.3 |
| 20260506101503 | 63 | 147 | 7.0 | 14.8 | 0.00 | 0.00 | 0.00 | 60 | 1012.7 |
| 20260506101003 | 63 | 164 | 5.2 | 13.0 | 0.00 | 0.00 | 0.00 | 61 | 1012.5 |
| 20260506100503 | 64 | 167 | 4.3 | 11.3 | 0.00 | 0.00 | 0.00 | 61 | 1012.7 |
| 20260506100217 | 63 | 178 | 4.3 | 9.6 | 0.00 | 0.00 | 0.00 | 60 | 1012.7 |
| 20260506095503 | 63 | 202 | 4.3 | 9.6 | 0.00 | 0.00 | 0.00 | 61 | 1012.6 |
| 20260506095003 | 62 | 213 | 3.5 | 9.6 | 0.00 | 0.00 | 0.00 | 61 | 1013.0 |
| 20260506094503 | 62 | 250 | 4.3 | 9.6 | 0.00 | 0.00 | 0.00 | 61 | 1012.8 |
| 20260506094003 | 63 | 248 | 4.3 | 9.6 | 0.00 | 0.00 | 0.00 | 63 | 1012.8 |
| 20260506093503 | 63 | 230 | 4.3 | 9.6 | 0.00 | 0.00 | 0.00 | 63 | 1012.8 |
| 20260506093003 | 63 | 208 | 3.5 | 9.6 | 0.00 | 0.00 | 0.00 | 64 | 1012.8 |
| 20260506092718 | 62 | 180 | 3.5 | 9.6 | 0.00 | 0.00 | 0.00 | 65 | 1012.8 |
| 20260506092003 | 61 | 173 | 4.3 | 11.3 | 0.00 | 0.01 | 0.00 | 66 | 1012.9 |
| 20260506091503 | 62 | 177 | 4.3 | 11.3 | 0.00 | 0.01 | 0.00 | 64 | 1012.9 |
| 20260506091003 | 62 | 169 | 5.2 | 10.4 | 0.00 | 0.01 | 0.00 | 61 | 1012.5 |
| 20260506090718 | 62 | 159 | 5.2 | 10.4 | 0.00 | 0.01 | 0.00 | 62 | 1012.7 |
| 20260506090003 | 62 | 175 | 5.2 | 9.6 | 0.00 | 0.01 | 0.00 | 65 | 1012.8 |
| 20260506085503 | 62 | 209 | 3.5 | 9.6 | 0.00 | 0.01 | 0.00 | 62 | 1012.6 |
| 20260506085003 | 63 | 146 | 2.6 | 11.3 | 0.00 | 0.01 | 0.00 | 58 | 1012.6 |
| 20260506084718 | 61 | 132 | 3.5 | 11.3 | 0.00 | 0.01 | 0.00 | 58 | 1012.5 |
| 20260506084003 | 60 | 147 | 6.1 | 12.2 | 0.00 | 0.01 | 0.00 | 64 | 1012.6 |
| 20260506083503 | 61 | 156 | 5.2 | 12.2 | 0.00 | 0.01 | 0.00 | 67 | 1012.5 |
| 20260506083003 | 62 | 174 | 3.5 | 7.0 | 0.00 | 0.01 | 0.00 | 68 | 1012.6 |
| 20260506082503 | 61 | 207 | 2.6 | 7.0 | 0.00 | 0.01 | 0.00 | 68 | 1012.6 |
| 20260506082003 | 60 | 187 | 3.5 | 7.0 | 0.00 | 0.01 | 0.00 | 69 | 1012.3 |
| 20260506081503 | 61 | 154 | 2.6 | 7.0 | 0.00 | 0.01 | 0.00 | 68 | 1012.6 |
| 20260506081003 | 61 | 136 | 2.6 | 6.1 | 0.00 | 0.01 | 0.00 | 66 | 1012.6 |
| 20260506080503 | 60 | 133 | 2.6 | 6.1 | 0.00 | 0.01 | 0.00 | 66 | 1012.5 |
| 20260506080216 | 61 | 161 | 2.6 | 5.2 | 0.00 | 0.01 | 0.00 | 66 | 1012.6 |
| 20260506073503 | 58 | 175 | 2.6 | 5.2 | 0.00 | 0.01 | 0.00 | 67 | 1012.5 |
| 20260506073003 | 58 | 163 | 1.7 | 3.5 | 0.00 | 0.01 | 0.00 | 67 | 1012.5 |
| 20260506072503 | 59 | 26 | 1.7 | 4.3 | 0.00 | 0.01 | 0.00 | 66 | 1012.3 |
| 20260506072003 | 57 | 351 | 2.6 | 5.2 | 0.00 | 0.01 | 0.00 | 68 | 1012.2 |
| 20260506071717 | 57 | 340 | 2.6 | 5.2 | 0.00 | 0.01 | 0.00 | 68 | 1012.3 |
| 20260506071003 | 57 | 351 | 2.6 | 6.1 | 0.00 | 0.01 | 0.00 | 69 | 1012.5 |
| 20260506070503 | 56 | 356 | 1.7 | 4.3 | 0.00 | 0.01 | 0.00 | 70 | 1012.6 |
| 20260506070218 | 56 | 347 | 1.7 | 5.2 | 0.00 | 0.01 | 0.00 | 71 | 1012.3 |
| 20260506062503 | 52 | 88 | 0.9 | 3.5 | 0.00 | 0.01 | 0.00 | 82 | 1012.2 |
| 20260506062218 | 52 | 340 | 0.9 | 3.5 | 0.00 | 0.01 | 0.00 | 82 | 1012.1 |
| 20260506061503 | 51 | 29 | 1.7 | 7.0 | 0.00 | 0.01 | 0.00 | 84 | 1012.1 |
| 20260506061003 | 51 | 126 | 1.7 | 7.0 | 0.00 | 0.01 | 0.00 | 86 | 1012.3 |
| 20260506060503 | 51 | 132 | 1.7 | 3.5 | 0.00 | 0.01 | 0.00 | 87 | 1012.1 |
| 20260506060218 | 50 | 160 | 0.9 | 2.6 | 0.00 | 0.01 | 0.00 | 87 | 1011.9 |
| 20260506051217 | 48 | 63 | 0.9 | 2.6 | 0.00 | 0.01 | 0.00 | 90 | 1011.8 |
| 20260506050503 | 47 | 307 | 0.9 | 2.6 | 0.00 | 0.01 | 0.00 | 90 | 1011.8 |
| 20260506045003 | 46 | 152 | 0.9 | 3.5 | 0.00 | 0.01 | 0.00 | 90 | 1011.7 |
| 20260506044503 | 46 | 151 | 0.9 | 4.3 | 0.00 | 0.01 | 0.00 | 90 | 1011.4 |
| 20260506044003 | 46 | 152 | 1.7 | 4.3 | 0.00 | 0.01 | 0.00 | 90 | 1011.7 |
| 20260506043503 | 46 | 138 | 0.9 | 2.6 | 0.00 | 0.01 | 0.00 | 90 | 1011.6 |
| 20260506043003 | 46 | 98 | 0.9 | 1.7 | 0.00 | 0.01 | 0.00 | 90 | 1011.5 |
| 20260506042503 | 46 | 101 | 0.9 | 3.5 | 0.00 | 0.01 | 0.00 | 90 | 1011.4 |
| 20260506042217 | 46 | 110 | 0.9 | 3.5 | 0.00 | 0.01 | 0.00 | 90 | 1011.4 |
| 20260506041503 | 46 | 128 | 0.9 | 3.5 | 0.00 | 0.02 | 0.00 | 90 | 1011.3 |
| 20260506041003 | 46 | 148 | 0.9 | 2.6 | 0.00 | 0.02 | 0.00 | 90 | 1011.5 |
| 20260506040503 | 46 | 281 | 0.9 | 2.6 | 0.00 | 0.02 | 0.00 | 90 | 1011.3 |
| 20260506040217 | 46 | 250 | 0.9 | 2.6 | 0.00 | 0.02 | 0.00 | 90 | 1011.3 |
| 20260506035503 | 46 | 135 | 0.9 | 2.6 | 0.00 | 0.02 | 0.00 | 90 | 1011.3 |
| 20260506035003 | 46 | 53 | 0.0 | 1.7 | 0.00 | 0.02 | 0.00 | 90 | 1011.2 |
| 20260506034718 | 46 | 319 | 0.0 | 1.7 | 0.00 | 0.02 | 0.00 | 90 | 1011.5 |
| 20260506034217 | 46 | 251 | 0.9 | 1.7 | 0.00 | 0.02 | 0.00 | 90 | 1011.3 |
| 20260506033503 | 46 | 103 | 1.7 | 4.3 | 0.00 | 0.02 | 0.00 | 90 | 1011.2 |
| 20260506033003 | 46 | 114 | 0.9 | 4.3 | 0.00 | 0.02 | 0.00 | 90 | 1011.5 |
| 20260506032503 | 46 | 196 | 0.9 | 2.6 | 0.00 | 0.02 | 0.00 | 90 | 1011.4 |
| 20260506032217 | 45 | 197 | 0.9 | 2.6 | 0.00 | 0.02 | 0.00 | 90 | 1011.4 |
| 20260506031503 | 46 | 211 | 0.9 | 2.6 | 0.00 | 0.02 | 0.00 | 90 | 1011.4 |
| 20260506031003 | 46 | 211 | 0.9 | 2.6 | 0.00 | 0.02 | 0.00 | 90 | 1011.5 |
| 20260506030503 | 46 | 151 | 0.9 | 2.6 | 0.00 | 0.02 | 0.00 | 90 | 1011.5 |
| 20260506030003 | 46 | 149 | 0.9 | 2.6 | 0.00 | 0.02 | 0.00 | 90 | 1011.5 |
| 20260506025503 | 46 | 249 | 0.9 | 1.7 | 0.00 | 0.02 | 0.00 | 89 | 1011.4 |
| 20260506025003 | 46 | 156 | 0.9 | 2.6 | 0.00 | 0.02 | 0.00 | 90 | 1011.6 |
| 20260506024503 | 46 | 132 | 0.9 | 2.6 | 0.00 | 0.02 | 0.00 | 90 | 1011.4 |
| 20260506024003 | 46 | 149 | 0.9 | 2.6 | 0.00 | 0.02 | 0.00 | 90 | 1011.3 |
| 20260506023503 | 46 | 218 | 0.9 | 2.6 | 0.00 | 0.02 | 0.00 | 90 | 1011.5 |
| 20260506023003 | 46 | 153 | 0.9 | 2.6 | 0.00 | 0.02 | 0.00 | 89 | 1011.4 |
| 20260506022503 | 46 | 356 | 0.9 | 1.7 | 0.00 | 0.02 | 0.00 | 90 | 1011.3 |
| 20260506022003 | 46 | 6 | 0.9 | 2.6 | 0.00 | 0.02 | 0.00 | 89 | 1011.2 |
| 20260506021503 | 46 | 128 | 0.9 | 2.6 | 0.00 | 0.02 | 0.00 | 89 | 1011.3 |
| 20260506021003 | 47 | 134 | 0.9 | 2.6 | 0.00 | 0.02 | 0.00 | 89 | 1011.2 |
| 20260506020504 | 46 | 157 | 0.9 | 2.6 | 0.00 | 0.02 | 0.00 | 89 | 1011.3 |
| 20260506020003 | 47 | 12 | 1.7 | 3.5 | 0.00 | 0.02 | 0.00 | 89 | 1011.3 |
| 20260506015503 | 47 | 307 | 0.9 | 3.5 | 0.00 | 0.02 | 0.00 | 89 | 1011.2 |
| 20260506015003 | 47 | 259 | 0.9 | 2.6 | 0.00 | 0.02 | 0.00 | 89 | 1011.3 |
| 20260506014503 | 47 | 133 | 1.7 | 3.5 | 0.00 | 0.02 | 0.00 | 89 | 1011.3 |
| 20260506014003 | 47 | 186 | 1.7 | 3.5 | 0.00 | 0.02 | 0.00 | 89 | 1011.2 |
| 20260506013717 | 47 | 191 | 0.9 | 3.5 | 0.00 | 0.02 | 0.00 | 89 | 1011.2 |
| 20260506013003 | 47 | 213 | 0.9 | 2.6 | 0.00 | 0.02 | 0.00 | 89 | 1011.1 |
| 20260506012503 | 48 | 16 | 0.9 | 2.6 | 0.00 | 0.02 | 0.00 | 89 | 1011.0 |
| 20260506012218 | 48 | 333 | 0.9 | 2.6 | 0.00 | 0.02 | 0.00 | 89 | 1011.2 |
| 20260506011503 | 48 | 109 | 1.7 | 3.5 | 0.00 | 0.02 | 0.00 | 88 | 1011.2 |
| 20260506011003 | 48 | 147 | 1.7 | 3.5 | 0.00 | 0.02 | 0.00 | 88 | 1011.0 |
| 20260506010717 | 48 | 282 | 0.9 | 3.5 | 0.00 | 0.02 | 0.00 | 88 | 1011.2 |
| 20260506010003 | 48 | 24 | 0.9 | 1.7 | 0.00 | 0.02 | 0.00 | 88 | 1011.2 |
| 20260506005503 | 49 | 261 | 0.9 | 1.7 | 0.00 | 0.02 | 0.00 | 88 | 1011.2 |
| 20260506005003 | 49 | 138 | 0.9 | 1.7 | 0.00 | 0.02 | 0.00 | 88 | 1011.3 |
| 20260506004504 | 49 | 56 | 0.9 | 1.7 | 0.00 | 0.02 | 0.00 | 88 | 1011.2 |
| 20260506004003 | 49 | 245 | 0.9 | 2.6 | 0.00 | 0.02 | 0.00 | 88 | 1011.3 |
| 20260506003503 | 49 | 136 | 0.9 | 3.5 | 0.00 | 0.02 | 0.00 | 87 | 1011.2 |
| 20260506003003 | 50 | 125 | 1.7 | 3.5 | 0.00 | 0.02 | 0.00 | 87 | 1011.2 |
| 20260506002503 | 50 | 56 | 1.7 | 3.5 | 0.00 | 0.02 | 0.00 | 87 | 1011.2 |
| 20260506002217 | 50 | 328 | 1.7 | 3.5 | 0.00 | 0.02 | 0.00 | 87 | 1011.2 |
| 20260506001503 | 50 | 355 | 0.9 | 3.5 | 0.00 | 0.02 | 0.00 | 87 | 1011.3 |
| 20260506001003 | 51 | 82 | 0.9 | 3.5 | 0.00 | 0.02 | 0.00 | 86 | 1011.0 |
| 20260506000503 | 51 | 164 | 0.9 | 2.6 | 0.00 | 0.02 | 0.00 | 86 | 1011.5 |
| 20260506000003 | 51 | 6 | 0.9 | 3.5 | 0.00 | 0.02 | 0.00 | 86 | 1011.4 |
| 20260505235503 | 51 | 70 | 1.7 | 3.5 | 0.00 | 0.02 | 0.00 | 86 | 1011.3 |
| 20260505235003 | 51 | 123 | 1.7 | 3.5 | 0.00 | 0.02 | 0.00 | 85 | 1011.5 |
| 20260505234503 | 52 | 140 | 0.9 | 3.5 | 0.00 | 0.02 | 0.00 | 85 | 1011.6 |
| 20260505234003 | 52 | 140 | 0.9 | 3.5 | 0.00 | 0.02 | 0.00 | 84 | 1011.3 |
| 20260505233503 | 52 | 317 | 0.9 | 2.6 | 0.00 | 0.02 | 0.00 | 84 | 1011.4 |
| 20260505233003 | 53 | 350 | 0.9 | 2.6 | 0.00 | 0.02 | 0.00 | 83 | 1011.2 |
| 20260505232718 | 53 | 47 | 1.7 | 2.6 | 0.00 | 0.02 | 0.00 | 83 | 1011.2 |
| 20260505232003 | 53 | 95 | 1.7 | 3.5 | 0.00 | 0.02 | 0.00 | 82 | 1011.3 |
| 20260505231503 | 53 | 54 | 0.9 | 2.6 | 0.00 | 0.02 | 0.00 | 82 | 1011.2 |
| 20260505231217 | 53 | 12 | 0.9 | 3.5 | 0.00 | 0.02 | 0.00 | 82 | 1011.6 |
| 20260505230503 | 53 | 17 | 1.7 | 3.5 | 0.00 | 0.02 | 0.00 | 82 | 1011.5 |
| 20260505230003 | 53 | 60 | 2.6 | 5.2 | 0.00 | 0.02 | 0.00 | 80 | 1011.2 |
| 20260505225718 | 53 | 64 | 2.6 | 5.2 | 0.00 | 0.02 | 0.00 | 80 | 1011.4 |
| 20260505225003 | 53 | 130 | 1.7 | 4.3 | 0.00 | 0.02 | 0.00 | 81 | 1011.4 |
| 20260505224718 | 54 | 160 | 1.7 | 3.5 | 0.00 | 0.02 | 0.00 | 81 | 1011.7 |
| 20260505224003 | 54 | 143 | 0.9 | 2.6 | 0.00 | 0.02 | 0.00 | 81 | 1011.5 |
| 20260505223503 | 54 | 167 | 0.9 | 2.6 | 0.00 | 0.02 | 0.00 | 80 | 1011.8 |
| 20260505223003 | 54 | 11 | 0.9 | 2.6 | 0.00 | 0.02 | 0.00 | 78 | 1011.8 |
| 20260505222718 | 54 | 18 | 0.9 | 3.5 | 0.00 | 0.02 | 0.00 | 78 | 1011.5 |
| 20260505222003 | 54 | 57 | 3.5 | 7.0 | 0.00 | 0.02 | 0.00 | 78 | 1011.7 |
| 20260505221503 | 53 | 70 | 4.3 | 7.0 | 0.00 | 0.02 | 0.00 | 79 | 1012.0 |
| 20260505221217 | 53 | 73 | 3.5 | 7.0 | 0.00 | 0.02 | 0.00 | 79 | 1012.0 |
| 20260505220503 | 54 | 113 | 2.6 | 5.2 | 0.00 | 0.02 | 0.00 | 79 | 1012.1 |
| 20260505220217 | 54 | 124 | 1.7 | 4.3 | 0.00 | 0.02 | 0.00 | 79 | 1012.0 |
| 20260505215503 | 54 | 13 | 0.9 | 3.5 | 0.00 | 0.02 | 0.02 | 78 | 1011.9 |
| 20260505215003 | 54 | 64 | 1.7 | 3.5 | 0.00 | 0.02 | 0.02 | 78 | 1012.0 |
| 20260505214503 | 54 | 108 | 1.7 | 3.5 | 0.00 | 0.02 | 0.02 | 79 | 1011.9 |
| 20260505214003 | 53 | 147 | 1.7 | 3.5 | 0.00 | 0.02 | 0.02 | 79 | 1012.1 |
| 20260505213503 | 54 | 154 | 1.7 | 3.5 | 0.00 | 0.02 | 0.02 | 79 | 1011.8 |
| 20260505213003 | 54 | 156 | 0.9 | 3.5 | 0.00 | 0.02 | 0.02 | 78 | 1011.9 |
| 20260505212503 | 54 | 40 | 0.9 | 3.5 | 0.00 | 0.02 | 0.02 | 78 | 1011.8 |
| 20260505212003 | 54 | 43 | 1.7 | 4.3 | 0.00 | 0.02 | 0.02 | 76 | 1011.7 |
| 20260505211503 | 54 | 57 | 1.7 | 4.3 | 0.00 | 0.02 | 0.02 | 75 | 1011.8 |
| 20260505211003 | 55 | 58 | 1.7 | 4.3 | 0.00 | 0.02 | 0.02 | 74 | 1011.7 |
| 20260505210503 | 54 | 52 | 2.6 | 5.2 | 0.00 | 0.02 | 0.02 | 75 | 1011.7 |
| 20260505210003 | 54 | 57 | 2.6 | 5.2 | 0.00 | 0.02 | 0.02 | 77 | 1011.7 |
| 20260505205503 | 54 | 85 | 1.7 | 5.2 | 0.00 | 0.02 | 0.02 | 77 | 1011.6 |
| 20260505205003 | 54 | 122 | 1.7 | 3.5 | 0.00 | 0.02 | 0.02 | 77 | 1011.6 |
| 20260505204503 | 54 | 119 | 1.7 | 3.5 | 0.00 | 0.02 | 0.02 | 77 | 1011.6 |
| 20260505204003 | 54 | 339 | 1.7 | 3.5 | 0.00 | 0.02 | 0.02 | 76 | 1011.4 |
| 20260505203503 | 55 | 10 | 1.7 | 3.5 | 0.00 | 0.02 | 0.02 | 74 | 1011.3 |
| 20260505203003 | 55 | 351 | 1.7 | 3.5 | 0.00 | 0.02 | 0.02 | 76 | 1011.2 |
| 20260505202503 | 55 | 314 | 1.7 | 3.5 | 0.00 | 0.02 | 0.02 | 74 | 1010.9 |
| 20260505202003 | 55 | 328 | 1.7 | 3.5 | 0.00 | 0.03 | 0.02 | 75 | 1010.9 |
| 20260505201503 | 56 | 9 | 1.7 | 3.5 | 0.00 | 0.04 | 0.02 | 73 | 1010.9 |
| 20260505201003 | 57 | 64 | 1.7 | 5.2 | 0.00 | 0.04 | 0.02 | 70 | 1010.7 |
| 20260505200503 | 57 | 26 | 2.6 | 5.2 | 0.00 | 0.04 | 0.02 | 68 | 1010.5 |
| 20260505200003 | 57 | 344 | 1.7 | 3.5 | 0.00 | 0.04 | 0.02 | 69 | 1010.6 |
| 20260505195717 | 58 | 326 | 1.7 | 3.5 | 0.00 | 0.04 | 0.02 | 69 | 1010.5 |
| 20260505195003 | 58 | 230 | 1.7 | 5.2 | 0.00 | 0.04 | 0.02 | 68 | 1010.5 |
| 20260505194717 | 58 | 213 | 1.7 | 5.2 | 0.00 | 0.04 | 0.02 | 68 | 1010.6 |
| 20260505194003 | 58 | 216 | 2.6 | 5.2 | 0.00 | 0.04 | 0.02 | 70 | 1010.5 |
| 20260505193717 | 58 | 242 | 2.6 | 5.2 | 0.00 | 0.04 | 0.02 | 71 | 1010.6 |
| 20260505193003 | 57 | 281 | 3.5 | 9.6 | 0.00 | 0.04 | 0.02 | 73 | 1010.5 |
| 20260505192503 | 57 | 293 | 6.1 | 12.2 | 0.00 | 0.04 | 0.02 | 74 | 1010.5 |
| 20260505192003 | 57 | 302 | 6.1 | 12.2 | 0.00 | 0.04 | 0.02 | 73 | 1010.7 |
| 20260505191503 | 57 | 303 | 5.2 | 13.0 | 0.00 | 0.04 | 0.02 | 75 | 1010.9 |
| 20260505191003 | 57 | 290 | 3.5 | 13.0 | 0.00 | 0.04 | 0.02 | 75 | 1010.6 |
| 20260505190503 | 58 | 292 | 1.7 | 5.2 | 0.00 | 0.04 | 0.02 | 73 | 1010.8 |
| 20260505190004 | 58 | 332 | 1.7 | 5.2 | 0.00 | 0.04 | 0.02 | 72 | 1010.5 |
| 20260505185503 | 58 | 349 | 2.6 | 5.2 | 0.00 | 0.04 | 0.02 | 72 | 1010.4 |